Theta_e
317 312 311 307 300 296 292 297 298 299 300 303 303 302 302 303 299 298 312 321 329 335 339 349 351 353 353 353 353 352 352 350 348 348 347 346 346 346 347 349 350 347 346 343 341 340 337 335 333
313 311 306 299 293 290 292 295 298 299 302 302 302 302 302 301 306 311 317 322 329 335 340 348 348 352 353 353 352 351 351 351 348 347 346 346 345 346 349 349 349 347 347 345 341 338 334 331 329
312 306 303 295 290 289 292 296 298 300 301 302 301 304 303 304 308 312 318 324 334 336 341 347 347 352 353 353 353 351 351 350 348 347 347 347 347 346 347 348 347 346 344 344 340 336 332 328 325
308 304 299 292 292 294 295 297 298 300 301 302 302 301 303 308 309 314 322 331 333 335 341 344 347 352 353 352 352 351 349 349 348 347 346 348 348 347 347 347 347 345 343 341 339 334 330 326 323
301 299 293 291 294 295 295 299 299 298 299 300 301 301 301 306 314 320 323 328 330 334 338 343 346 350 352 352 352 352 350 350 350 348 347 349 347 347 347 345 343 343 341 335 334 332 328 323 320
299 296 290 289 292 295 297 298 298 297 298 299 299 299 303 306 308 315 322 322 330 333 336 339 338 343 347 350 350 350 350 350 350 349 349 348 347 345 344 343 341 341 340 336 332 329 326 321 319
296 292 289 289 291 294 297 298 297 297 298 299 302 299 303 303 306 315 319 320 323 330 334 337 340 341 336 342 343 345 347 347 347 347 347 346 345 345 342 339 340 337 337 334 332 328 324 320 316
295 293 290 290 291 293 297 297 298 298 299 300 302 298 300 301 305 310 312 306 309 310 318 329 335 339 342 346 334 338 341 343 343 342 340 337 338 339 336 334 337 336 335 333 331 327 323 319 314
297 289 287 291 291 293 297 297 298 299 298 299 300 299 297 298 300 301 301 301 301 302 303 304 311 332 338 341 339 332 334 337 337 337 334 335 343 342 334 330 334 337 336 333 331 326 322 314 307
293 288 289 293 293 294 296 296 297 298 297 298 299 299 298 297 297 297 296 296 297 298 300 301 303 305 321 337 340 339 342 341 343 343 342 339 339 337 333 327 329 332 331 333 330 325 317 308 301
295 290 292 295 297 297 297 296 298 297 295 298 299 297 296 295 295 294 294 294 294 296 299 300 302 304 306 328 337 339 340 340 342 342 340 338 335 332 331 329 329 330 324 327 323 317 315 308 303
293 295 295 299 298 297 296 297 297 297 298 296 295 295 294 293 293 293 293 294 294 296 298 299 301 303 307 315 333 337 337 337 336 335 335 335 332 330 329 327 327 326 325 323 320 316 314 309 303
295 295 296 297 297 296 296 296 296 296 294 294 294 293 292 292 292 293 293 294 294 295 296 298 300 304 308 313 330 333 334 335 335 336 333 331 330 328 327 327 327 326 323 321 318 314 311 311 305
294 295 295 295 295 295 295 293 294 294 293 293 292 291 291 291 291 292 292 292 293 294 295 297 300 307 312 315 327 329 331 331 330 329 329 329 329 327 326 324 323 323 325 324 318 314 311 308 306
294 292 293 293 293 293 294 291 292 294 293 291 290 290 290 290 290 290 291 291 292 293 294 296 301 307 318 323 325 327 325 324 323 323 322 324 325 325 324 323 322 320 320 318 315 312 310 306 302
290 289 288 292 293 293 293 290 294 293 293 291 290 289 289 289 289 290 290 291 292 292 293 296 299 306 313 316 315 310 308 307 308 309 312 314 316 319 319 318 317 316 315 313 311 308 307 306 304
287 286 285 289 293 292 292 291 294 293 292 290 289 289 289 288 289 289 290 290 291 291 292 295 297 300 306 305 303 301 300 300 300 300 302 304 307 311 312 311 311 312 310 309 308 304 304 303 302
285 284 285 286 290 290 289 290 292 293 292 290 288 287 287 287 287 288 288 289 290 290 291 293 295 297 303 302 300 298 297 296 295 295 296 297 299 303 305 304 305 307 306 305 306 304 302 299 297
287 285 286 287 290 290 289 289 292 292 289 287 286 287 287 287 288 288 288 288 288 289 290 291 293 294 297 298 298 295 292 292 291 291 292 293 295 296 297 299 300 302 300 300 300 302 301 300 298
286 285 285 287 289 289 288 288 292 291 290 289 287 286 286 286 286 286 286 286 286 286 287 289 290 292 294 294 294 293 291 289 289 289 288 289 291 292 292 293 293 294 296 296 296 297 298 298 296
285 285 284 286 287 288 286 286 288 289 288 288 288 287 286 285 285 285 285 284 285 285 284 286 287 289 291 293 292 291 290 289 287 286 286 286 287 288 289 289 290 290 291 291 293 294 294 294 296
283 287 287 286 285 283 286 281 286 286 286 286 285 284 284 285 285 285 284 283 284 283 284 284 285 286 287 288 288 287 285 283 284 284 285 285 285 286 286 286 286 287 287 287 289 290 291 293 291
287 288 286 286 284 283 283 281 284 285 286 285 284 284 284 284 284 284 283 283 283 283 282 283 284 284 284 285 286 284 283 284 284 284 283 283 284 284 284 285 285 285 285 285 285 285 285 287 287
288 287 285 283 282 277 283 283 282 284 286 285 285 285 285 284 284 284 284 283 282 282 282 283 283 282 283 283 283 283 283 282 282 282 282 282 282 282 282 283 283 283 283 283 283 284 283 284 284
285 284 279 278 276 278 281 280 284 287 287 287 286 285 284 284 284 283 282 282 282 282 282 282 282 281 282 282 282 282 282 282 281 281 281 281 281 281 281 281 281 281 281 281 282 282 282 282 282
284 285 280 275 275 278 279 279 284 286 285 285 286 286 284 284 283 283 282 282 282 282 282 282 281 281 281 282 282 282 282 282 281 281 281 281 281 280 281 280 280 280 280 280 280 280 281 281 281
284 282 286 280 270 275 281 283 287 285 284 284 284 284 283 284 283 283 283 282 282 282 282 282 282 281 282 281 281 281 281 281 280 280 280 280 280 280 280 280 279 279 279 279 279 279 279 279 279
286 288 282 280 273 270 278 280 284 284 284 283 282 283 283 284 283 284 283 283 282 282 282 282 282 282 281 281 281 281 280 280 280 280 279 279 279 280 279 279 279 279 279 279 278 278 278 278 278
285 283 283 284 281 275 272 279 285 286 286 284 284 284 284 284 284 284 284 284 283 282 281 281 281 281 281 281 280 280 279 279 279 279 279 279 279 279 279 278 278 278 277 278 277 277 278 277 277
285 285 285 281 278 277 278 281 285 285 286 286 285 285 285 286 285 285 285 284 282 282 281 280 281 281 281 280 280 280 279 279 279 279 279 279 278 278 278 277 277 276 276 276 276 276 276 276 276
Wind_Speed
4 3 3 5 5 5 1 0 1 2 1 2 1 2 3 2 3 2 1 5 1 5 11 11 10 11 9 9 9 9 9 10 10 10 9 9 8 8 7 8 9 10 11 11 11 11 11 11 10
2 1 5 3 6 4 3 3 2 1 2 2 1 1 3 1 0 2 2 1 2 6 9 9 9 9 9 8 8 8 8 9 10 10 10 9 8 7 8 9 8 9 11 15 11 10 11 11 10
3 4 5 5 4 4 3 3 2 2 2 1 2 2 2 2 2 1 2 6 4 8 9 8 8 8 8 10 9 8 7 6 7 7 8 7 8 7 7 7 9 10 9 14 10 10 10 11 10
3 5 5 6 3 2 1 1 2 2 3 3 1 3 2 2 1 2 2 4 3 5 8 9 11 10 9 8 11 9 8 7 7 6 6 7 8 7 6 7 8 10 12 13 11 9 10 11 10
5 4 5 4 0 1 3 3 2 1 1 2 2 1 1 5 3 4 4 3 3 2 2 5 9 10 10 10 10 11 9 8 8 7 6 7 9 8 7 6 5 6 10 8 8 8 10 10 10
5 3 5 3 2 2 3 1 2 1 0 1 2 2 1 4 6 5 5 5 5 4 3 2 5 5 7 8 10 10 10 9 8 8 6 7 9 8 6 4 2 6 8 7 6 6 8 9 9
7 5 4 5 3 1 3 2 3 2 2 2 2 2 2 5 7 4 6 7 7 6 3 2 4 6 5 6 8 9 10 8 7 6 5 7 8 7 6 3 3 4 7 7 6 6 7 8 9
6 5 4 2 4 3 1 0 1 1 2 4 1 1 1 4 10 5 7 10 10 10 9 7 3 4 7 7 6 7 8 9 8 8 7 7 7 7 6 4 2 3 5 6 6 8 7 8 8
3 6 3 5 5 3 1 1 0 1 2 4 3 4 3 8 8 9 7 9 9 10 11 9 9 6 5 5 5 6 6 8 10 9 9 8 5 8 7 5 5 3 5 7 9 7 9 8 8
5 4 7 5 4 3 1 1 1 1 4 1 3 5 7 8 12 12 11 10 10 12 11 9 9 8 9 3 4 4 4 5 4 6 7 4 4 3 4 6 6 5 6 8 8 9 9 6 3
2 4 4 2 3 4 3 2 1 3 0 2 2 2 7 10 11 11 9 6 7 8 8 10 8 6 6 5 2 1 1 2 4 5 4 3 3 3 3 2 3 3 4 2 5 5 3 3 2
2 1 3 1 2 3 2 3 3 4 2 6 7 5 4 10 10 10 10 11 12 10 9 10 10 7 4 3 2 1 1 1 1 2 3 1 2 3 4 3 3 3 3 3 3 2 4 4 3
2 1 2 2 5 4 2 4 5 3 7 8 9 11 10 9 8 6 7 6 10 11 13 13 12 9 6 3 4 3 3 2 1 1 3 2 2 1 2 2 3 3 3 3 3 3 2 3 3
2 1 5 6 3 3 4 3 4 2 7 9 10 8 7 8 7 6 10 10 10 9 11 13 12 11 6 2 5 4 3 3 4 4 4 4 2 2 2 1 2 1 3 3 2 3 3 1 1
2 3 7 4 0 3 6 2 7 6 7 8 6 5 6 7 8 9 7 6 8 8 9 12 11 11 6 6 5 5 7 8 8 7 11 9 5 3 2 2 2 2 1 3 3 3 3 2 2
2 4 3 2 1 1 3 6 2 8 9 6 4 5 7 8 7 6 7 7 8 7 8 7 8 11 12 12 11 10 10 9 9 8 9 12 12 10 8 6 5 4 3 3 3 2 2 2 3
6 3 4 8 2 1 2 6 3 4 5 5 4 4 5 5 8 8 8 7 7 8 9 9 9 10 11 13 12 12 12 10 9 8 8 11 11 11 8 7 6 6 5 6 3 2 2 2 3
7 4 5 5 1 2 1 9 5 5 6 7 5 4 4 5 6 7 9 9 10 10 8 7 6 8 9 9 10 9 10 10 9 10 10 12 10 11 8 8 9 8 7 6 5 4 3 3 3
6 4 6 3 2 3 6 6 14 7 5 7 7 7 5 5 4 7 8 9 9 12 13 13 10 10 5 5 7 7 8 9 10 10 14 14 13 14 12 9 10 9 9 9 8 3 6 6 6
4 4 6 5 3 3 6 9 12 3 3 4 9 8 8 5 5 6 7 8 10 9 11 11 11 10 8 5 5 5 6 9 9 8 13 14 14 14 13 12 11 12 9 12 12 9 3 3 7
5 7 4 6 3 2 3 7 6 1 2 4 4 4 4 6 6 5 6 7 7 9 10 10 10 10 9 9 8 7 6 6 7 9 9 12 15 14 13 14 11 11 10 9 10 10 10 6 5
5 9 6 4 3 4 1 6 7 0 2 3 5 5 6 6 4 4 4 6 7 7 7 8 8 9 9 9 10 13 9 10 5 8 8 10 13 14 13 13 12 11 8 11 9 10 10 7 8
7 6 7 4 4 2 3 1 9 1 5 5 6 6 7 8 8 6 4 4 3 3 6 7 8 11 10 10 10 10 13 9 6 6 11 11 11 13 13 12 12 11 8 10 11 11 11 9 7
9 7 6 4 4 1 8 8 5 4 5 4 6 9 6 4 3 3 2 3 3 3 5 7 9 9 9 10 10 12 13 9 8 8 8 7 7 7 11 10 10 10 10 10 8 9 11 8 7
1 6 0 2 0 7 1 5 9 6 5 4 11 11 9 8 8 7 8 5 2 2 3 5 8 9 8 10 11 10 11 11 11 8 7 7 6 6 9 9 10 8 9 9 8 9 9 8 7
7 7 7 8 5 4 2 8 8 4 2 1 4 11 10 9 7 8 7 6 6 5 4 5 6 9 7 8 9 8 8 7 7 7 6 6 6 6 6 7 8 9 8 8 8 6 5 6 6
6 6 2 6 3 3 5 4 4 1 1 3 6 10 12 12 10 10 8 7 6 5 5 6 6 6 6 7 8 8 8 8 8 8 7 6 5 5 6 6 6 7 7 8 7 5 6 6 6
5 6 4 2 1 5 4 4 5 6 7 5 7 11 12 9 9 9 9 9 7 6 6 6 6 7 6 6 6 6 7 7 7 6 7 7 6 5 6 8 8 9 9 9 8 7 6 7 6
5 3 3 4 5 6 2 6 6 8 9 12 12 13 15 14 13 12 10 8 7 6 6 7 7 7 7 6 6 7 6 6 6 6 5 5 5 5 6 6 6 6 7 7 7 7 7 8 9
3 8 8 6 6 3 4 6 0 3 6 8 9 11 11 12 13 11 10 8 8 8 8 9 8 8 8 7 6 6 6 6 6 5 5 4 4 3 3 4 4 4 5 5 6 6 6 8 9
Wind_Direction
1 18 66 42 59 64 19 53 275 11 38 258 215 149 141 138 142 139 266 203 267 185 172 179 170 166 159 144 134 132 131 128 126 122 115 108 102 94 90 106 97 90 91 78 55 51 51 50 48
355 57 47 76 81 67 284 267 164 242 238 288 136 69 77 70 248 336 58 115 266 162 172 178 173 168 159 149 141 143 141 139 137 133 129 124 118 105 96 108 98 97 91 88 56 45 40 38 36
112 43 78 85 104 146 179 235 279 303 317 90 100 51 135 22 39 109 287 171 148 159 170 175 177 173 170 162 159 156 151 144 139 133 128 123 119 118 109 103 108 105 85 73 62 36 33 30 29
64 21 49 77 98 199 173 289 222 324 337 36 93 60 322 319 315 321 13 114 114 163 170 172 178 180 178 190 168 164 166 164 156 152 147 142 122 115 118 116 138 111 86 64 62 37 30 26 24
36 55 59 85 157 225 253 248 172 124 180 324 350 343 17 351 345 42 75 91 86 129 186 192 191 186 180 182 176 170 176 181 176 175 180 171 135 121 118 115 89 111 72 60 40 27 28 24 25
49 88 68 155 223 281 276 291 184 150 353 320 68 91 37 1 13 13 59 62 71 123 144 197 221 214 198 191 195 178 179 188 190 183 203 173 153 144 141 132 114 60 71 89 75 35 34 29 28
104 79 156 149 178 260 206 330 176 165 338 84 160 101 160 30 349 25 52 54 51 51 78 144 193 212 238 216 202 201 192 197 207 199 207 184 167 161 152 152 119 73 70 81 79 70 50 42 34
100 90 110 204 173 200 253 301 123 81 271 313 174 85 149 338 336 14 45 38 37 27 22 5 322 230 220 217 235 215 193 195 199 204 200 197 184 168 155 118 80 71 81 82 79 89 62 56 44
123 66 144 197 155 185 324 83 123 341 8 352 15 74 352 331 358 36 18 10 9 11 11 7 356 311 238 226 212 220 233 208 201 205 201 204 176 178 163 162 160 107 99 95 98 89 83 65 45
78 98 204 186 190 147 106 199 267 138 356 333 85 96 34 24 37 44 29 11 3 354 351 1 354 345 323 260 203 203 196 233 232 223 212 189 186 136 163 147 136 115 118 118 122 111 86 68 50
167 160 190 206 185 160 168 257 170 133 242 223 270 4 28 25 32 35 24 14 344 328 338 345 341 336 329 299 246 181 156 162 235 270 229 147 122 127 145 144 145 141 133 108 117 124 103 84 64
95 102 179 316 152 143 181 145 269 169 175 80 74 73 47 35 31 20 7 357 351 344 336 332 335 326 310 230 277 149 131 156 227 39 18 102 114 162 168 164 160 154 162 155 155 154 129 120 100
108 316 208 267 274 246 112 214 230 200 133 92 72 54 43 35 26 21 6 1 352 353 341 340 333 331 313 235 165 134 130 118 76 342 57 32 148 206 177 208 178 174 166 168 164 149 156 143 131
165 265 278 272 192 215 188 202 146 142 127 84 77 69 55 45 21 11 12 1 3 350 346 337 341 339 323 170 143 106 101 77 54 48 34 42 16 320 274 171 179 225 215 192 162 167 161 141 203
102 319 328 272 146 221 157 151 228 138 129 101 100 110 85 49 32 24 3 358 350 348 338 353 352 348 26 79 86 74 67 64 55 49 38 35 37 64 46 353 343 24 18 9 13 34 32 49 7
59 50 359 272 154 356 164 259 187 168 149 143 116 74 60 46 33 17 6 359 350 353 7 2 19 17 42 59 62 60 56 58 50 44 43 42 40 37 42 48 38 23 33 70 60 48 32 13 358
6 239 220 316 228 105 170 260 206 165 126 139 116 87 68 41 24 11 7 3 6 358 359 17 33 52 60 70 77 69 63 58 47 46 45 41 51 55 56 51 35 54 52 46 40 59 44 14 350
201 216 245 227 211 168 193 269 215 205 155 167 153 113 90 62 24 5 12 7 2 5 18 21 37 52 89 93 82 77 70 61 53 45 38 34 38 40 59 55 40 41 53 43 37 35 26 20 320
137 174 231 220 258 177 235 254 274 169 144 160 165 162 141 100 41 33 30 13 14 22 16 14 25 18 60 70 84 77 73 65 60 53 46 47 41 43 44 46 48 45 47 44 34 26 27 27 347
134 179 248 294 225 163 268 254 259 227 190 193 176 169 156 128 83 38 30 37 33 36 26 22 23 23 39 56 83 80 86 68 67 57 53 50 50 47 50 47 44 42 50 40 35 31 27 30 17
201 198 197 220 355 251 329 282 252 242 86 61 73 91 101 121 100 62 41 40 37 43 37 32 19 25 35 64 92 92 85 70 54 44 52 45 53 53 50 56 54 53 46 47 39 32 36 31 15
207 194 179 175 101 238 38 283 306 145 176 103 122 145 150 139 126 85 51 35 25 29 55 57 70 53 40 43 69 75 84 91 75 75 67 58 50 51 50 54 55 54 48 48 42 39 40 46 33
222 135 160 133 152 81 260 303 266 341 262 189 188 180 180 171 165 144 112 97 60 32 61 62 63 67 67 73 85 94 97 96 96 85 78 67 57 50 49 50 51 51 46 47 46 45 43 41 47
149 84 60 61 111 230 224 179 263 214 208 153 167 190 177 160 126 108 83 76 69 46 51 64 75 65 64 79 85 98 106 108 98 84 76 64 62 56 49 49 50 52 48 39 39 43 44 40 46
151 109 79 340 316 225 178 144 237 206 189 193 192 176 173 170 168 163 162 155 127 107 101 91 90 84 73 84 84 91 95 95 93 90 86 81 64 49 43 47 43 40 43 38 37 37 37 27 27
187 177 168 204 197 224 40 222 254 172 114 294 215 168 165 173 174 178 181 185 172 178 134 104 101 98 86 93 95 95 93 96 97 96 94 83 78 69 57 52 51 43 38 34 32 34 31 13 11
197 215 175 99 56 64 225 285 276 176 196 88 144 160 177 185 186 185 182 183 182 185 163 143 124 121 122 121 115 108 111 109 111 107 97 93 85 77 67 60 56 45 38 32 23 22 8 359 350
163 166 95 3 212 268 272 262 230 210 208 172 186 191 189 182 185 196 195 192 183 183 163 164 160 157 155 135 125 123 118 114 117 113 100 90 86 71 56 40 33 27 21 14 7 359 353 349 347
151 199 70 125 150 190 258 247 216 189 186 195 201 196 189 191 196 194 194 189 181 176 165 177 173 168 161 149 143 139 133 115 99 91 86 79 73 54 48 37 24 17 6 358 348 340 328 328 322
196 181 161 164 217 225 172 236 294 236 220 189 195 194 193 195 197 196 190 174 180 183 182 187 185 177 177 164 152 142 135 127 114 114 113 107 97 76 57 31 16 4 346 331 322 315 312 312 319